Location: Chaumontel
(49.1247°N, 2.4324°E)
Time: 17:53:40
(UTC+00:00)

Cosmos 1340 - Pass Details

Date: 03 February 2023
Orbit: 478 x 483 km, 81.2° (Epoch: 25 March)

Event Time Altitude Azimuth Distance (km) Brightness Sun altitude
Rises 18:34:07 0° 350° (N) 2,555 6.3 -17.2°
Reaches altitude 10° 18:36:14 10° 352° (N) 1,672 5.3 -17.6°
Maximum altitude 18:39:53 71° 77° (ENE) 518 2.4 -18.1°
Drops below altitude 10° 18:43:31 10° 162° (SSE) 1,664 5.1 -18.7°
Enters shadow 18:43:38 - 162° (SSE) 1,712 5.2 -18.8°
